Location: Bremen
(53.0793°N, 8.8017°E)
Time: 02:13:24
(UTC+01:00)

Transit 2A - Pass Details

Date: 08 December 2021
Orbit: 591 x 967 km, 66.7° (Epoch: 17 January)

Event Time Altitude Azimuth Distance (km) Brightness Sun altitude
Exits shadow 02:44:49 12° 37° (NE) 2,581 9.1 -48.7°
Drops below altitude 10° 02:45:17 10° 39° (NE) 2,714 9.3 -48.6°
Sets 02:48:17 0° 51° (NE) 3,665 10.2 -48.2°
